Home > Time Zones > World Clock > Weather > Spain > Jaén > Past weeks

Flag for Spain Weather past 2 weeks in Jaén, Spain

Now
68 °F

Thunderstorms. Scattered clouds.


Feels Like: 68 °F
Forecast: 60 / 85 °F
Wind: 15 mph from Southeast

Location: Granada / Aeropuerto

Current Time: May 29, 2015 at 6:47:48 PM

Latest Report: May 29, 2015 at 6:00 PM


Visibility: N/A

Pressure: 29.98 "Hg

Humidity: 64%

Dew point: 55 °F

Location of JaénLocation

Historic Weather in Jaén — Graph

°F

Jaén temperature yesterday

Maximum temperature yesterday: 90 °F (at 5:30 PM)
Minimum temperature yesterday: 52 °F (at 6:30 AM)
Average temperature yesterday: 77 °F

Past Weeks' High & Low Weather Summary

 TemperatureHumidityPressure
High99 °F (May 14, 5:00 PM)88% (May 21, 6:00 AM)30.21 "Hg (May 21, 6:00 AM)
Low50 °F (May 22, 6:30 AM)11% (May 14, 5:00 PM)29.80 "Hg (May 19, 4:00 PM)
Average72 °F40%30.04 "Hg
* Reported May 14 5:00 PM — May 29 5:59 PM, Jaén, Weather by CustomWeather, © 2015

Note: Actual official high and low records may vary slightly from our data, if they occured in-between our weather recording intervals... More about our weather records

Advertising

Jaén weather history for previous 24 hours

 ConditionsComfort  
Time TempWeatherWind HumidityBarometerVisibility
5:59 PM
Fri, May 29
68 °FThunderstorms. Scattered clouds.16 mph69%29.98 "HgN/A
5:30 PM79 °FScattered clouds.20 mph48%29.95 "HgN/A
5:00 PM86 °FScattered clouds.5 mph24%29.92 "HgN/A
4:30 PM86 °FScattered clouds.6 mph22%29.92 "HgN/A
4:00 PM84 °FScattered clouds.10 mph25%29.95 "HgN/A
3:30 PM86 °FScattered clouds.10 mph25%29.95 "HgN/A
3:00 PM84 °FScattered clouds.14 mph23%29.95 "HgN/A
2:30 PM84 °FScattered clouds.8 mph23%29.95 "HgN/A
2:00 PM84 °FPassing clouds.8 mph23%29.95 "HgN/A
1:30 PM84 °FPassing clouds.8 mph23%29.98 "HgN/A
1:00 PM81 °FPassing clouds.3 mph26%29.98 "HgN/A
12:30 PM81 °FPassing clouds.1 mph24%29.98 "HgN/A
12:00 PM79 °FPassing clouds.1 mph28%29.98 "HgN/A
11:30 AM75 °FPassing clouds.1 mph31%30.01 "HgN/A
11:00 AM73 °FPassing clouds.1 mph33%30.01 "HgN/A
10:30 AM72 °FPassing clouds.2 mph36%30.01 "HgN/A
10:00 AM70 °FPassing clouds.No wind38%30.01 "HgN/A
9:30 AM66 °FPassing clouds.No wind46%30.01 "HgN/A
9:00 AM64 °FPassing clouds.No wind49%30.01 "HgN/A
8:30 AM59 °FScattered clouds.No wind63%30.01 "HgN/A
8:00 AM55 °FScattered clouds.1 mph72%29.98 "HgN/A
7:30 AM59 °FPassing clouds.3 mph59%29.98 "HgN/A
7:00 AM57 °FPassing clouds.2 mph67%29.98 "HgN/A
6:30 AM57 °FPassing clouds.1 mph67%29.98 "HgN/A
11:00 PM
Thu, May 28
73 °FClear.3 mph31%30.01 "Hg10 mi
10:30 PM77 °FPassing clouds.8 mph26%29.98 "HgN/A
10:00 PM79 °FPassing clouds.6 mph28%29.98 "HgN/A
9:30 PM81 °FPassing clouds.3 mph26%29.95 "HgN/A
9:00 PM82 °FPassing clouds.7 mph25%29.95 "HgN/A
8:30 PM84 °FPassing clouds.8 mph23%29.95 "HgN/A
8:00 PM86 °FPassing clouds.8 mph22%29.95 "HgN/A
7:30 PM88 °FPassing clouds.8 mph21%29.95 "HgN/A
7:00 PM90 °FPassing clouds.10 mph18%29.95 "HgN/A
6:30 PM90 °FPassing clouds.10 mph18%29.95 "HgN/A
6:00 PM90 °FPassing clouds.3 mph16%29.98 "HgN/A
Weather by CustomWeather, © 2015

See weather overviewHow to use our weather pages